Hourly Weather Salzburg

Today, 7 July, Tuesday

Time Temperature Precipitation Wind Pressure Humidity
00:00 +5°C° 0.2 mm 2 mps 627 mmHg 96%
01:00 +4°C° 0.2 mm 2 mps 627 mmHg 97%
02:00 +4°C° 0.1 mm 1 mps 627 mmHg 96%
03:00 +4°C° 0.1 mm 1 mps 627 mmHg 96%
04:00 +3°C° 0.1 mm 1 mps 627 mmHg 96%
05:00 +5°C° 0 mm 1 mps 627 mmHg 95%
06:00 +6°C° 0 mm 1 mps 628 mmHg 93%
07:00 +7°C° 0 mm 1 mps 629 mmHg 92%
08:00 +9°C° 0 mm 1 mps 629 mmHg 79%
09:00 +11°C° 0 mm 1 mps 630 mmHg 67%
10:00 +13°C° 0 mm 1 mps 630 mmHg 54%
11:00 +14°C° 0 mm 1 mps 630 mmHg 50%
12:00 +15°C° 0 mm 1 mps 630 mmHg 46%
13:00 +16°C° 0 mm 2 mps 630 mmHg 42%
14:00 +16°C° 0 mm 2 mps 630 mmHg 43%
15:00 +16°C° 0 mm 2 mps 630 mmHg 44%
16:00 +16°C° 0 mm 2 mps 630 mmHg 46%
17:00 +14°C° 0 mm 2 mps 629 mmHg 56%
18:00 +13°C° 0 mm 2 mps 629 mmHg 66%
19:00 +11°C° 0 mm 1 mps 628 mmHg 76%
20:00 +10°C° 0 mm 1 mps 628 mmHg 82%
21:00 +8°C° 0 mm 1 mps 628 mmHg 87%
22:00 +6°C° 0 mm 1 mps 627 mmHg 92%
23:00 +6°C° 0 mm 1 mps 627 mmHg 92%

Tomorrow, 8 July, Wednesday

Time Temperature Precipitation Wind Pressure Humidity
00:00 +6°C° 0 mm 1 mps 627 mmHg 92%
01:00 +5°C° 0 mm 1 mps 627 mmHg 92%
02:00 +5°C° 0 mm 1 mps 627 mmHg 92%
03:00 +5°C° 0 mm 1 mps 627 mmHg 92%
04:00 +5°C° 0 mm 1 mps 627 mmHg 93%
05:00 +7°C° 0 mm 1 mps 627 mmHg 86%
06:00 +9°C° 0 mm 1 mps 628 mmHg 80%
07:00 +10°C° 0 mm 0 mps 629 mmHg 73%
08:00 +14°C° 0 mm 1 mps 630 mmHg 64%
09:00 +16°C° 0 mm 1 mps 630 mmHg 55%
10:00 +19°C° 0 mm 1 mps 631 mmHg 46%
11:00 +20°C° 0 mm 1 mps 631 mmHg 44%
12:00 +19°C° 0 mm 2 mps 631 mmHg 42%
13:00 +20°C° 0 mm 2 mps 631 mmHg 41%
14:00 +20°C° 0 mm 2 mps 631 mmHg 44%
15:00 +19°C° 0 mm 2 mps 631 mmHg 47%
16:00 +19°C° 0 mm 3 mps 630 mmHg 50%
17:00 +17°C° 0 mm 2 mps 630 mmHg 60%
18:00 +16°C° 0 mm 2 mps 630 mmHg 71%
19:00 +14°C° 0 mm 1 mps 629 mmHg 81%
20:00 +12°C° 0 mm 1 mps 629 mmHg 85%
21:00 +11°C° 0 mm 1 mps 629 mmHg 90%
22:00 +8°C° 0 mm 0 mps 629 mmHg 94%
23:00 +8°C° 0 mm 0 mps 629 mmHg 95%

Day after tomorrow, 9 July, Thursday

Time Temperature Precipitation Wind Pressure Humidity
00:00 +9°C° 0 mm 1 mps 629 mmHg 95%
01:00 +9°C° 0 mm 1 mps 629 mmHg 95%
02:00 +9°C° 0 mm 1 mps 629 mmHg 95%
03:00 +9°C° 0 mm 1 mps 629 mmHg 95%
04:00 +9°C° 0 mm 1 mps 629 mmHg 94%
05:00 +9°C° 0 mm 0 mps 629 mmHg 89%
06:00 +11°C° 0 mm 0 mps 630 mmHg 84%
07:00 +12°C° 0 mm 0 mps 631 mmHg 80%
08:00 +14°C° 0 mm 0 mps 631 mmHg 71%
09:00 +18°C° 0 mm 1 mps 632 mmHg 62%
10:00 +21°C° 0 mm 1 mps 633 mmHg 53%
11:00 +21°C° 0.1 mm 1 mps 633 mmHg 51%
12:00 +22°C° 0.1 mm 1 mps 633 mmHg 49%
13:00 +23°C° 0.1 mm 1 mps 633 mmHg 47%
14:00 +22°C° 0.3 mm 1 mps 632 mmHg 53%
15:00 +20°C° 0.3 mm 2 mps 632 mmHg 59%
16:00 +19°C° 0.3 mm 2 mps 631 mmHg 65%
17:00 +19°C° 0.3 mm 1 mps 631 mmHg 72%
18:00 +18°C° 0.3 mm 1 mps 630 mmHg 80%
19:00 +15°C° 0.3 mm 0 mps 630 mmHg 87%
20:00 +15°C° 0.2 mm 1 mps 630 mmHg 89%
21:00 +13°C° 0.2 mm 1 mps 629 mmHg 90%
22:00 +12°C° 0.2 mm 1 mps 629 mmHg 92%
23:00 +12°C° 0 mm 2 mps 629 mmHg 92%

10 July, Friday

Time Temperature Precipitation Wind Pressure Humidity
00:00 +10°C° 0 mm 2 mps 628 mmHg 92%
01:00 +10°C° 0 mm 2 mps 628 mmHg 92%
02:00 +10°C° 0 mm 2 mps 628 mmHg 92%
03:00 +10°C° 0 mm 2 mps 628 mmHg 91%
04:00 +9°C° 0 mm 2 mps 627 mmHg 90%
05:00 +12°C° 0 mm 2 mps 628 mmHg 87%
06:00 +14°C° 0 mm 1 mps 628 mmHg 84%
07:00 +15°C° 0 mm 1 mps 629 mmHg 81%
08:00 +19°C° 0.2 mm 1 mps 629 mmHg 72%
09:00 +21°C° 0.2 mm 1 mps 630 mmHg 63%
10:00 +21°C° 0.2 mm 0 mps 630 mmHg 54%
11:00 +22°C° 0.3 mm 0 mps 630 mmHg 51%
12:00 +24°C° 0.3 mm 1 mps 630 mmHg 48%
13:00 +25°C° 0.3 mm 1 mps 630 mmHg 45%
14:00 +23°C° 0.7 mm 1 mps 629 mmHg 55%
15:00 +20°C° 0.7 mm 2 mps 628 mmHg 66%
16:00 +18°C° 0.7 mm 2 mps 628 mmHg 76%
17:00 +16°C° 2.9 mm 2 mps 627 mmHg 83%
18:00 +15°C° 2.9 mm 2 mps 627 mmHg 91%
19:00 +13°C° 2.9 mm 2 mps 627 mmHg 98%
20:00 +13°C° 5.2 mm 2 mps 627 mmHg 98%
21:00 +12°C° 5.2 mm 2 mps 628 mmHg 98%
22:00 +10°C° 5.2 mm 2 mps 628 mmHg 99%
23:00 +11°C° 2.4 mm 1 mps 628 mmHg 99%

11 July, Saturday

Time Temperature Precipitation Wind Pressure Humidity
00:00 +10°C° 2.4 mm 1 mps 628 mmHg 99%
01:00 +10°C° 2.4 mm 1 mps 628 mmHg 99%
02:00 +9°C° 0.9 mm 1 mps 628 mmHg 99%
03:00 +9°C° 0.9 mm 1 mps 628 mmHg 99%
04:00 +8°C° 0.9 mm 1 mps 628 mmHg 99%
05:00 +8°C° 0.7 mm 1 mps 628 mmHg 99%
06:00 +8°C° 0.7 mm 1 mps 628 mmHg 99%
07:00 +7°C° 0.7 mm 1 mps 628 mmHg 99%
08:00 +8°C° 0.6 mm 1 mps 629 mmHg 96%
09:00 +8°C° 0.6 mm 1 mps 629 mmHg 94%
10:00 +9°C° 0.6 mm 1 mps 629 mmHg 92%
11:00 +10°C° 0.1 mm 1 mps 630 mmHg 86%
12:00 +11°C° 0.1 mm 1 mps 630 mmHg 80%
13:00 +12°C° 0.1 mm 1 mps 631 mmHg 75%
14:00 +12°C° 0.1 mm 1 mps 631 mmHg 74%
15:00 +12°C° 0.1 mm 1 mps 630 mmHg 73%
16:00 +12°C° 0.1 mm 1 mps 630 mmHg 72%
17:00 +11°C° 0.1 mm 1 mps 630 mmHg 77%
18:00 +10°C° 0.1 mm 1 mps 630 mmHg 82%
19:00 +10°C° 0.1 mm 1 mps 630 mmHg 87%
20:00 +8°C° 0 mm 1 mps 630 mmHg 89%
21:00 +7°C° 0 mm 1 mps 630 mmHg 92%
22:00 +5°C° 0 mm 0 mps 630 mmHg 95%
23:00 +5°C° 0 mm 0 mps 630 mmHg 94%

12 July, Sunday

Time Temperature Precipitation Wind Pressure Humidity
00:00 +5°C° 0 mm 0 mps 630 mmHg 94%
01:00 +5°C° 0 mm 0 mps 630 mmHg 94%
02:00 +4°C° 0 mm 0 mps 630 mmHg 94%
03:00 +4°C° 0 mm 0 mps 629 mmHg 94%
04:00 +3°C° 0 mm 0 mps 629 mmHg 94%
05:00 +5°C° 0 mm 0 mps 630 mmHg 90%
06:00 +7°C° 0 mm 0 mps 631 mmHg 85%
07:00 +8°C° 0 mm 0 mps 632 mmHg 81%
08:00 +10°C° 0 mm 0 mps 632 mmHg 70%
09:00 +14°C° 0 mm 1 mps 633 mmHg 60%
10:00 +16°C° 0 mm 1 mps 634 mmHg 50%
11:00 +16°C° 0 mm 1 mps 634 mmHg 47%
12:00 +17°C° 0 mm 2 mps 634 mmHg 44%
13:00 +18°C° 0 mm 2 mps 634 mmHg 41%
14:00 +17°C° 0 mm 2 mps 634 mmHg 43%
15:00 +17°C° 0 mm 2 mps 633 mmHg 45%
16:00 +17°C° 0 mm 2 mps 633 mmHg 48%
17:00 +15°C° 0 mm 2 mps 633 mmHg 57%
18:00 +14°C° 0 mm 1 mps 632 mmHg 67%
19:00 +12°C° 0 mm 1 mps 632 mmHg 76%
20:00 +10°C° 0 mm 1 mps 631 mmHg 81%
21:00 +9°C° 0 mm 1 mps 631 mmHg 85%
22:00 +7°C° 0 mm 1 mps 630 mmHg 90%
23:00 +7°C° 0 mm 1 mps 630 mmHg 90%
Show more